Year,Month,Day,Hour,Minute,Value (Times are PST for insolation in W/m^2)
2020,04,26,00,00,0.00
2020,04,26,00,01,0.00
2020,04,26,00,02,0.00
2020,04,26,00,03,0.00
2020,04,26,00,04,0.00
2020,04,26,00,05,0.00
2020,04,26,00,06,0.00
2020,04,26,00,07,0.00
2020,04,26,00,08,0.00
2020,04,26,00,09,0.00
2020,04,26,00,10,0.00
2020,04,26,00,11,0.00
2020,04,26,00,12,0.00
2020,04,26,00,13,0.00
2020,04,26,00,14,0.00
2020,04,26,00,15,0.00
2020,04,26,00,16,0.00
2020,04,26,00,17,0.00
2020,04,26,00,18,0.00
2020,04,26,00,19,0.00
2020,04,26,00,20,0.00
2020,04,26,00,21,0.00
2020,04,26,00,22,0.00
2020,04,26,00,23,0.00
2020,04,26,00,24,0.00
2020,04,26,00,25,0.00
2020,04,26,00,26,0.00
2020,04,26,00,27,0.00
2020,04,26,00,28,0.00
2020,04,26,00,29,0.00
2020,04,26,00,30,0.00
2020,04,26,00,31,0.00
2020,04,26,00,32,0.00
2020,04,26,00,33,0.00
2020,04,26,00,34,0.00
2020,04,26,00,35,0.00
2020,04,26,00,36,0.00
2020,04,26,00,37,0.00
2020,04,26,00,38,0.00
2020,04,26,00,39,0.00
2020,04,26,00,40,0.00
2020,04,26,00,41,0.00
2020,04,26,00,42,0.00
2020,04,26,00,43,0.00
2020,04,26,00,44,0.00
2020,04,26,00,45,0.00
2020,04,26,00,46,0.00
2020,04,26,00,47,0.00
2020,04,26,00,48,0.00
2020,04,26,00,49,0.00
2020,04,26,00,50,0.00
2020,04,26,00,51,0.00
2020,04,26,00,52,0.00
2020,04,26,00,53,0.00
2020,04,26,00,54,0.00
2020,04,26,00,55,0.00
2020,04,26,00,56,0.00
2020,04,26,00,57,0.00
2020,04,26,00,58,0.00
2020,04,26,00,59,0.00
2020,04,26,01,00,0.00
2020,04,26,01,01,0.00
2020,04,26,01,02,0.00
2020,04,26,01,03,0.00
2020,04,26,01,04,0.00
2020,04,26,01,05,0.00
2020,04,26,01,06,0.00
2020,04,26,01,07,0.00
2020,04,26,01,08,0.00
2020,04,26,01,09,0.00
2020,04,26,01,10,0.00
2020,04,26,01,11,0.00
2020,04,26,01,12,0.00
2020,04,26,01,13,0.00
2020,04,26,01,14,0.00
2020,04,26,01,15,0.00
2020,04,26,01,16,0.00
2020,04,26,01,17,0.00
2020,04,26,01,18,0.00
2020,04,26,01,19,0.00
2020,04,26,01,20,0.00
2020,04,26,01,21,0.00
2020,04,26,01,22,0.00
2020,04,26,01,23,0.00
2020,04,26,01,24,0.00
2020,04,26,01,25,0.00
2020,04,26,01,26,0.00
2020,04,26,01,27,0.00
2020,04,26,01,28,0.00
2020,04,26,01,29,0.00
2020,04,26,01,30,0.00
2020,04,26,01,31,0.00
2020,04,26,01,32,0.00
2020,04,26,01,33,0.00
2020,04,26,01,34,0.00
2020,04,26,01,35,0.00
2020,04,26,01,36,0.00
2020,04,26,01,37,0.00
2020,04,26,01,38,0.00
2020,04,26,01,39,0.00
2020,04,26,01,40,0.00
2020,04,26,01,41,0.00
2020,04,26,01,42,0.00
2020,04,26,01,43,0.00
2020,04,26,01,44,0.00
2020,04,26,01,45,0.00
2020,04,26,01,46,0.00
2020,04,26,01,47,0.00
2020,04,26,01,48,0.00
2020,04,26,01,49,0.00
2020,04,26,01,50,0.00
2020,04,26,01,51,0.00
2020,04,26,01,52,0.00
2020,04,26,01,53,0.00
2020,04,26,01,54,0.00
2020,04,26,01,55,0.00
2020,04,26,01,56,0.00
2020,04,26,01,57,0.00
2020,04,26,01,58,0.00
2020,04,26,01,59,0.00
2020,04,26,02,00,0.00
2020,04,26,02,01,0.00
2020,04,26,02,02,0.00
2020,04,26,02,03,0.00
2020,04,26,02,04,0.00
2020,04,26,02,05,0.00
2020,04,26,02,06,0.00
2020,04,26,02,07,0.00
2020,04,26,02,08,0.00
2020,04,26,02,09,0.00
2020,04,26,02,10,0.00
2020,04,26,02,11,0.00
2020,04,26,02,12,0.00
2020,04,26,02,13,0.00
2020,04,26,02,14,0.00
2020,04,26,02,15,0.00
2020,04,26,02,16,0.00
2020,04,26,02,17,0.00
2020,04,26,02,18,0.00
2020,04,26,02,19,0.00
2020,04,26,02,20,0.00
2020,04,26,02,21,0.00
2020,04,26,02,22,0.00
2020,04,26,02,23,0.00
2020,04,26,02,24,0.00
2020,04,26,02,25,0.00
2020,04,26,02,26,0.00
2020,04,26,02,27,0.00
2020,04,26,02,28,0.00
2020,04,26,02,29,0.00
2020,04,26,02,30,0.00
2020,04,26,02,31,0.00
2020,04,26,02,32,0.00
2020,04,26,02,33,0.00
2020,04,26,02,34,0.00
2020,04,26,02,35,0.00
2020,04,26,02,36,0.00
2020,04,26,02,37,0.00
2020,04,26,02,38,0.00
2020,04,26,02,39,0.00
2020,04,26,02,40,0.00
2020,04,26,02,41,0.00
2020,04,26,02,42,0.00
2020,04,26,02,43,0.00
2020,04,26,02,44,0.00
2020,04,26,02,45,0.00
2020,04,26,02,46,0.00
2020,04,26,02,47,0.00
2020,04,26,02,48,0.00
2020,04,26,02,49,0.00
2020,04,26,02,50,0.00
2020,04,26,02,51,0.00
2020,04,26,02,52,0.00
2020,04,26,02,53,0.00
2020,04,26,02,54,0.00
2020,04,26,02,55,0.00
2020,04,26,02,56,0.00
2020,04,26,02,57,0.00
2020,04,26,02,58,0.00
2020,04,26,02,59,0.00
2020,04,26,03,00,0.00
2020,04,26,03,01,0.00
2020,04,26,03,02,0.00
2020,04,26,03,03,0.00
2020,04,26,03,04,0.00
2020,04,26,03,05,0.00
2020,04,26,03,06,0.00
2020,04,26,03,07,0.00
2020,04,26,03,08,0.00
2020,04,26,03,09,0.00
2020,04,26,03,10,0.00
2020,04,26,03,11,0.00
2020,04,26,03,12,0.00
2020,04,26,03,13,0.00
2020,04,26,03,14,0.00
2020,04,26,03,15,0.00
2020,04,26,03,16,0.00
2020,04,26,03,17,0.00
2020,04,26,03,18,0.00
2020,04,26,03,19,0.00
2020,04,26,03,20,0.00
2020,04,26,03,21,0.00
2020,04,26,03,22,0.00
2020,04,26,03,23,0.00
2020,04,26,03,24,0.00
2020,04,26,03,25,0.00
2020,04,26,03,26,0.00
2020,04,26,03,27,0.00
2020,04,26,03,28,0.00
2020,04,26,03,29,0.00
2020,04,26,03,30,0.00
2020,04,26,03,31,0.00
2020,04,26,03,32,0.00
2020,04,26,03,33,0.00
2020,04,26,03,34,0.00
2020,04,26,03,35,0.00
2020,04,26,03,36,0.00
2020,04,26,03,37,0.00
2020,04,26,03,38,0.00
2020,04,26,03,39,0.00
2020,04,26,03,40,0.00
2020,04,26,03,41,0.00
2020,04,26,03,42,0.00
2020,04,26,03,43,0.00
2020,04,26,03,44,0.00
2020,04,26,03,45,0.00
2020,04,26,03,46,0.00
2020,04,26,03,47,0.00
2020,04,26,03,48,0.00
2020,04,26,03,49,0.00
2020,04,26,03,50,0.00
2020,04,26,03,51,0.00
2020,04,26,03,52,0.00
2020,04,26,03,53,0.00
2020,04,26,03,54,0.00
2020,04,26,03,55,0.00
2020,04,26,03,56,0.00
2020,04,26,03,57,0.00
2020,04,26,03,58,0.00
2020,04,26,03,59,0.00
2020,04,26,04,00,0.00
2020,04,26,04,01,0.00
2020,04,26,04,02,0.00
2020,04,26,04,03,0.00
2020,04,26,04,04,0.00
2020,04,26,04,05,0.00
2020,04,26,04,06,0.00
2020,04,26,04,07,0.00
2020,04,26,04,08,0.00
2020,04,26,04,09,0.00
2020,04,26,04,10,0.00
2020,04,26,04,11,0.00
2020,04,26,04,12,0.00
2020,04,26,04,13,0.00
2020,04,26,04,14,0.00
2020,04,26,04,15,0.00
2020,04,26,04,16,0.00
2020,04,26,04,17,0.00
2020,04,26,04,18,0.00
2020,04,26,04,19,0.00
2020,04,26,04,20,0.00
2020,04,26,04,21,0.00
2020,04,26,04,22,0.00
2020,04,26,04,23,0.00
2020,04,26,04,24,0.00
2020,04,26,04,25,0.00
2020,04,26,04,26,0.00
2020,04,26,04,27,0.00
2020,04,26,04,28,0.00
2020,04,26,04,29,0.00
2020,04,26,04,30,0.00
2020,04,26,04,31,0.00
2020,04,26,04,32,0.00
2020,04,26,04,33,0.00
2020,04,26,04,34,0.00
2020,04,26,04,35,0.00
2020,04,26,04,36,0.00
2020,04,26,04,37,0.00
2020,04,26,04,38,0.00
2020,04,26,04,39,0.00
2020,04,26,04,40,0.00
2020,04,26,04,41,0.00
2020,04,26,04,42,0.00
2020,04,26,04,43,0.00
2020,04,26,04,44,0.00
2020,04,26,04,45,0.00
2020,04,26,04,46,0.00
2020,04,26,04,47,0.00
2020,04,26,04,48,0.00
2020,04,26,04,49,0.00
2020,04,26,04,50,0.00
2020,04,26,04,51,0.00
2020,04,26,04,52,0.00
2020,04,26,04,53,0.00
2020,04,26,04,54,0.00
2020,04,26,04,55,0.00
2020,04,26,04,56,0.00
2020,04,26,04,57,0.00
2020,04,26,04,58,0.00
2020,04,26,04,59,0.00
2020,04,26,05,00,0.00
2020,04,26,05,01,0.00
2020,04,26,05,02,0.00
2020,04,26,05,03,0.00
2020,04,26,05,04,0.00
2020,04,26,05,05,0.00
2020,04,26,05,06,0.00
2020,04,26,05,07,0.00
2020,04,26,05,08,0.00
2020,04,26,05,09,0.00
2020,04,26,05,10,0.00
2020,04,26,05,11,0.00
2020,04,26,05,12,0.00
2020,04,26,05,13,0.00
2020,04,26,05,14,0.00
2020,04,26,05,15,0.00
2020,04,26,05,16,0.00
2020,04,26,05,17,0.00
2020,04,26,05,18,0.00
2020,04,26,05,19,0.00
2020,04,26,05,20,0.00
2020,04,26,05,21,0.00
2020,04,26,05,22,0.00
2020,04,26,05,23,0.00
2020,04,26,05,24,0.00
2020,04,26,05,25,0.00
2020,04,26,05,26,0.00
2020,04,26,05,27,0.00
2020,04,26,05,28,0.00
2020,04,26,05,29,0.00
2020,04,26,05,30,0.00
2020,04,26,05,31,0.00
2020,04,26,05,32,0.00
2020,04,26,05,33,0.00
2020,04,26,05,34,0.00
2020,04,26,05,35,0.00
2020,04,26,05,36,0.00
2020,04,26,05,37,0.00
2020,04,26,05,38,0.00
2020,04,26,05,39,0.00
2020,04,26,05,40,0.00
2020,04,26,05,41,0.00
2020,04,26,05,42,0.00
2020,04,26,05,43,0.00
2020,04,26,05,44,0.00
2020,04,26,05,45,0.00
2020,04,26,05,46,0.00
2020,04,26,05,47,0.00
2020,04,26,05,48,0.00
2020,04,26,05,49,0.00
2020,04,26,05,50,0.00
2020,04,26,05,51,0.00
2020,04,26,05,52,0.00
2020,04,26,05,53,0.00
2020,04,26,05,54,0.00
2020,04,26,05,55,0.00
2020,04,26,05,56,0.00
2020,04,26,05,57,0.00
2020,04,26,05,58,0.00
2020,04,26,05,59,0.00
2020,04,26,06,00,0.00
2020,04,26,06,01,0.00
2020,04,26,06,02,0.00
2020,04,26,06,03,0.00
2020,04,26,06,04,0.00
2020,04,26,06,05,0.00
2020,04,26,06,06,0.00
2020,04,26,06,07,0.00
2020,04,26,06,08,0.00
2020,04,26,06,09,0.00
2020,04,26,06,10,0.00
2020,04,26,06,11,0.00
2020,04,26,06,12,0.00
2020,04,26,06,13,4.80
2020,04,26,06,14,5.00
2020,04,26,06,15,5.60
2020,04,26,06,16,7.00
2020,04,26,06,17,7.00
2020,04,26,06,18,7.00
2020,04,26,06,19,8.60
2020,04,26,06,20,9.20
2020,04,26,06,21,11.00
2020,04,26,06,22,11.00
2020,04,26,06,23,11.40
2020,04,26,06,24,12.00
2020,04,26,06,25,12.00
2020,04,26,06,26,12.00
2020,04,26,06,27,12.00
2020,04,26,06,28,12.00
2020,04,26,06,29,12.00
2020,04,26,06,30,11.50
2020,04,26,06,31,11.00
2020,04,26,06,32,11.00
2020,04,26,06,33,11.00
2020,04,26,06,34,11.00
2020,04,26,06,35,11.00
2020,04,26,06,36,11.00
2020,04,26,06,37,11.00
2020,04,26,06,38,11.00
2020,04,26,06,39,11.70
2020,04,26,06,40,12.00
2020,04,26,06,41,12.00
2020,04,26,06,42,12.00
2020,04,26,06,43,12.60
2020,04,26,06,44,14.80
2020,04,26,06,45,16.00
2020,04,26,06,46,17.40
2020,04,26,06,47,20.40
2020,04,26,06,48,22.90
2020,04,26,06,49,25.20
2020,04,26,06,50,26.60
2020,04,26,06,51,28.00
2020,04,26,06,52,29.10
2020,04,26,06,53,30.00
2020,04,26,06,54,30.00
2020,04,26,06,55,30.00
2020,04,26,06,56,30.60
2020,04,26,06,57,33.60
2020,04,26,06,58,35.80
2020,04,26,06,59,38.10
2020,04,26,07,00,39.70
2020,04,26,07,01,41.60
2020,04,26,07,02,43.80
2020,04,26,07,03,41.60
2020,04,26,07,04,39.70
2020,04,26,07,05,39.00
2020,04,26,07,06,39.00
2020,04,26,07,07,39.00
2020,04,26,07,08,39.00
2020,04,26,07,09,37.00
2020,04,26,07,10,35.00
2020,04,26,07,11,35.00
2020,04,26,07,12,34.20
2020,04,26,07,13,32.40
2020,04,26,07,14,30.60
2020,04,26,07,15,28.40
2020,04,26,07,16,27.90
2020,04,26,07,17,26.00
2020,04,26,07,18,26.00
2020,04,26,07,19,26.00
2020,04,26,07,20,27.10
2020,04,26,07,21,28.00
2020,04,26,07,22,29.60
2020,04,26,07,23,31.90
2020,04,26,07,24,33.30
2020,04,26,07,25,35.00
2020,04,26,07,26,35.80
2020,04,26,07,27,37.00
2020,04,26,07,28,37.00
2020,04,26,07,29,35.40
2020,04,26,07,30,33.20
2020,04,26,07,31,32.80
2020,04,26,07,32,32.00
2020,04,26,07,33,32.00
2020,04,26,07,34,32.00
2020,04,26,07,35,32.00
2020,04,26,07,36,32.80
2020,04,26,07,37,34.80
2020,04,26,07,38,35.40
2020,04,26,07,39,37.00
2020,04,26,07,40,37.90
2020,04,26,07,41,39.50
2020,04,26,07,42,41.40
2020,04,26,07,43,45.20
2020,04,26,07,44,47.00
2020,04,26,07,45,49.40
2020,04,26,07,46,51.00
2020,04,26,07,47,51.90
2020,04,26,07,48,53.50
2020,04,26,07,49,55.30
2020,04,26,07,50,59.20
2020,04,26,07,51,61.90
2020,04,26,07,52,63.30
2020,04,26,07,53,65.00
2020,04,26,07,54,65.80
2020,04,26,07,55,67.00
2020,04,26,07,56,67.00
2020,04,26,07,57,68.60
2020,04,26,07,58,70.00
2020,04,26,07,59,72.30
2020,04,26,08,00,73.40
2020,04,26,08,01,71.20
2020,04,26,08,02,69.50
2020,04,26,08,03,69.70
2020,04,26,08,04,67.60
2020,04,26,08,05,66.80
2020,04,26,08,06,62.40
2020,04,26,08,07,59.40
2020,04,26,08,08,58.00
2020,04,26,08,09,60.30
2020,04,26,08,10,62.70
2020,04,26,08,11,63.00
2020,04,26,08,12,59.80
2020,04,26,08,13,53.80
2020,04,26,08,14,53.00
2020,04,26,08,15,55.10
2020,04,26,08,16,58.00
2020,04,26,08,17,56.60
2020,04,26,08,18,56.00
2020,04,26,08,19,62.90
2020,04,26,08,20,69.00
2020,04,26,08,21,67.20
2020,04,26,08,22,60.90
2020,04,26,08,23,58.00
2020,04,26,08,24,59.30
2020,04,26,08,25,61.60
2020,04,26,08,26,63.20
2020,04,26,08,27,66.40
2020,04,26,08,28,61.50
2020,04,26,08,29,55.90
2020,04,26,08,30,51.80
2020,04,26,08,31,51.00
2020,04,26,08,32,49.40
2020,04,26,08,33,47.20
2020,04,26,08,34,47.30
2020,04,26,08,35,50.20
2020,04,26,08,36,56.00
2020,04,26,08,37,65.00
2020,04,26,08,38,72.30
2020,04,26,08,39,75.60
2020,04,26,08,40,74.10
2020,04,26,08,41,73.60
2020,04,26,08,42,71.10
2020,04,26,08,43,69.00
2020,04,26,08,44,69.50
2020,04,26,08,45,72.80
2020,04,26,08,46,76.40
2020,04,26,08,47,82.70
2020,04,26,08,48,88.60
2020,04,26,08,49,92.10
2020,04,26,08,50,96.30
2020,04,26,08,51,100.20
2020,04,26,08,52,105.50
2020,04,26,08,53,112.70
2020,04,26,08,54,123.00
2020,04,26,08,55,133.90
2020,04,26,08,56,144.80
2020,04,26,08,57,153.30
2020,04,26,08,58,155.40
2020,04,26,08,59,148.80
2020,04,26,09,00,137.10
2020,04,26,09,01,144.10
2020,04,26,09,02,155.40
2020,04,26,09,03,150.20
2020,04,26,09,04,137.00
2020,04,26,09,05,120.50
2020,04,26,09,06,102.90
2020,04,26,09,07,88.10
2020,04,26,09,08,79.40
2020,04,26,09,09,73.60
2020,04,26,09,10,73.50
2020,04,26,09,11,80.10
2020,04,26,09,12,88.80
2020,04,26,09,13,102.70
2020,04,26,09,14,118.20
2020,04,26,09,15,127.00
2020,04,26,09,16,142.10
2020,04,26,09,17,157.20
2020,04,26,09,18,162.00
2020,04,26,09,19,163.60
2020,04,26,09,20,166.40
2020,04,26,09,21,167.00
2020,04,26,09,22,162.20
2020,04,26,09,23,155.80
2020,04,26,09,24,154.40
2020,04,26,09,25,149.20
2020,04,26,09,26,137.10
2020,04,26,09,27,127.20
2020,04,26,09,28,119.30
2020,04,26,09,29,114.80
2020,04,26,09,30,122.90
2020,04,26,09,31,139.50
2020,04,26,09,32,152.80
2020,04,26,09,33,159.10
2020,04,26,09,34,161.40
2020,04,26,09,35,162.80
2020,04,26,09,36,167.10
2020,04,26,09,37,172.80
2020,04,26,09,38,175.40
2020,04,26,09,39,167.20
2020,04,26,09,40,144.70
2020,04,26,09,41,122.10
2020,04,26,09,42,110.30
2020,04,26,09,43,114.00
2020,04,26,09,44,127.30
2020,04,26,09,45,140.50
2020,04,26,09,46,153.10
2020,04,26,09,47,166.20
2020,04,26,09,48,177.50
2020,04,26,09,49,179.40
2020,04,26,09,50,171.30
2020,04,26,09,51,162.00
2020,04,26,09,52,162.30
2020,04,26,09,53,164.70
2020,04,26,09,54,165.90
2020,04,26,09,55,163.70
2020,04,26,09,56,160.60
2020,04,26,09,57,158.00
2020,04,26,09,58,157.00
2020,04,26,09,59,164.80
2020,04,26,10,00,174.40
2020,04,26,10,01,183.00
2020,04,26,10,02,192.50
2020,04,26,10,03,210.20
2020,04,26,10,04,226.30
2020,04,26,10,05,233.40
2020,04,26,10,06,230.60
2020,04,26,10,07,231.20
2020,04,26,10,08,232.20
2020,04,26,10,09,225.50
2020,04,26,10,10,220.20
2020,04,26,10,11,223.10
2020,04,26,10,12,230.60
2020,04,26,10,13,216.50
2020,04,26,10,14,189.30
2020,04,26,10,15,167.00
2020,04,26,10,16,159.70
2020,04,26,10,17,158.00
2020,04,26,10,18,162.80
2020,04,26,10,19,168.40
2020,04,26,10,20,178.20
2020,04,26,10,21,183.00
2020,04,26,10,22,183.00
2020,04,26,10,23,183.00
2020,04,26,10,24,183.00
2020,04,26,10,25,186.00
2020,04,26,10,26,193.60
2020,04,26,10,27,197.60
2020,04,26,10,28,198.20
2020,04,26,10,29,194.80
2020,04,26,10,30,190.90
2020,04,26,10,31,188.40
2020,04,26,10,32,190.20
2020,04,26,10,33,200.30
2020,04,26,10,34,207.50
2020,04,26,10,35,212.30
2020,04,26,10,36,215.10
2020,04,26,10,37,213.90
2020,04,26,10,38,211.40
2020,04,26,10,39,210.90
2020,04,26,10,40,207.70
2020,04,26,10,41,201.40
2020,04,26,10,42,198.70
2020,04,26,10,43,195.90
2020,04,26,10,44,196.40
2020,04,26,10,45,199.30
2020,04,26,10,46,202.00
2020,04,26,10,47,206.80
2020,04,26,10,48,211.90
2020,04,26,10,49,216.50
2020,04,26,10,50,222.70
2020,04,26,10,51,227.80
2020,04,26,10,52,229.00
2020,04,26,10,53,229.00
2020,04,26,10,54,228.60
2020,04,26,10,55,227.60
2020,04,26,10,56,228.20
2020,04,26,10,57,228.10
2020,04,26,10,58,231.10
2020,04,26,10,59,232.00
2020,04,26,11,00,230.00
2020,04,26,11,01,225.60
2020,04,26,11,02,217.40
2020,04,26,11,03,215.20
2020,04,26,11,04,216.20
2020,04,26,11,05,220.10
2020,04,26,11,06,222.60
2020,04,26,11,07,224.90
2020,04,26,11,08,224.60
2020,04,26,11,09,223.60
2020,04,26,11,10,226.80
2020,04,26,11,11,231.70
2020,04,26,11,12,234.00
2020,04,26,11,13,235.60
2020,04,26,11,14,232.30
2020,04,26,11,15,232.00
2020,04,26,11,16,232.00
2020,04,26,11,17,230.70
2020,04,26,11,18,225.60
2020,04,26,11,19,220.90
2020,04,26,11,20,218.40
2020,04,26,11,21,219.90
2020,04,26,11,22,221.80
2020,04,26,11,23,225.60
2020,04,26,11,24,227.00
2020,04,26,11,25,227.00
2020,04,26,11,26,225.70
2020,04,26,11,27,228.20
2020,04,26,11,28,231.90
2020,04,26,11,29,234.40
2020,04,26,11,30,236.00
2020,04,26,11,31,236.00
2020,04,26,11,32,236.00
2020,04,26,11,33,236.00
2020,04,26,11,34,234.40
2020,04,26,11,35,232.20
2020,04,26,11,36,234.40
2020,04,26,11,37,236.30
2020,04,26,11,38,237.00
2020,04,26,11,39,239.20
2020,04,26,11,40,242.40
2020,04,26,11,41,241.40
2020,04,26,11,42,237.50
2020,04,26,11,43,241.40
2020,04,26,11,44,241.20
2020,04,26,11,45,233.50
2020,04,26,11,46,225.80
2020,04,26,11,47,220.90
2020,04,26,11,48,222.40
2020,04,26,11,49,226.70
2020,04,26,11,50,227.50
2020,04,26,11,51,231.80
2020,04,26,11,52,239.00
2020,04,26,11,53,245.80
2020,04,26,11,54,249.30
2020,04,26,11,55,250.80
2020,04,26,11,56,256.80
2020,04,26,11,57,263.70
2020,04,26,11,58,262.60
2020,04,26,11,59,265.30
2020,04,26,12,00,268.20
2020,04,26,12,01,271.00
2020,04,26,12,02,271.20
2020,04,26,12,03,265.20
2020,04,26,12,04,262.30
2020,04,26,12,05,264.90
2020,04,26,12,06,265.70
2020,04,26,12,07,258.10
2020,04,26,12,08,243.50
2020,04,26,12,09,243.00
2020,04,26,12,10,250.50
2020,04,26,12,11,249.70
2020,04,26,12,12,243.00
2020,04,26,12,13,246.00
2020,04,26,12,14,250.50
2020,04,26,12,15,258.60
2020,04,26,12,16,264.40
2020,04,26,12,17,266.80
2020,04,26,12,18,267.80
2020,04,26,12,19,271.00
2020,04,26,12,20,272.30
2020,04,26,12,21,277.80
2020,04,26,12,22,288.50
2020,04,26,12,23,304.90
2020,04,26,12,24,318.20
2020,04,26,12,25,298.40
2020,04,26,12,26,249.30
2020,04,26,12,27,224.50
2020,04,26,12,28,217.20
2020,04,26,12,29,216.80
2020,04,26,12,30,220.40
2020,04,26,12,31,237.20
2020,04,26,12,32,228.00
2020,04,26,12,33,227.10
2020,04,26,12,34,213.80
2020,04,26,12,35,205.10
2020,04,26,12,36,199.40
2020,04,26,12,37,194.40
2020,04,26,12,38,193.00
2020,04,26,12,39,192.80
2020,04,26,12,40,196.30
2020,04,26,12,41,216.10
2020,04,26,12,42,252.20
2020,04,26,12,43,287.20
2020,04,26,12,44,305.30
2020,04,26,12,45,287.80
2020,04,26,12,46,260.80
2020,04,26,12,47,246.70
2020,04,26,12,48,259.00
2020,04,26,12,49,275.80
2020,04,26,12,50,280.80
2020,04,26,12,51,273.30
2020,04,26,12,52,285.80
2020,04,26,12,53,283.90
2020,04,26,12,54,275.30
2020,04,26,12,55,292.30
2020,04,26,12,56,263.70
2020,04,26,12,57,247.60
2020,04,26,12,58,291.20
2020,04,26,12,59,280.70
2020,04,26,13,00,331.40
2020,04,26,13,01,332.80
2020,04,26,13,02,354.80
2020,04,26,13,03,327.20
2020,04,26,13,04,377.50
2020,04,26,13,05,372.00
2020,04,26,13,06,360.20
2020,04,26,13,07,347.30
2020,04,26,13,08,279.80
2020,04,26,13,09,248.90
2020,04,26,13,10,240.30
2020,04,26,13,11,243.80
2020,04,26,13,12,259.70
2020,04,26,13,13,275.90
2020,04,26,13,14,297.20
2020,04,26,13,15,365.60
2020,04,26,13,16,365.80
2020,04,26,13,17,325.70
2020,04,26,13,18,333.10
2020,04,26,13,19,359.00
2020,04,26,13,20,335.80
2020,04,26,13,21,381.20
2020,04,26,13,22,445.30
2020,04,26,13,23,455.00
2020,04,26,13,24,352.20
2020,04,26,13,25,264.00
2020,04,26,13,26,466.40
2020,04,26,13,27,428.00
2020,04,26,13,28,397.80
2020,04,26,13,29,418.00
2020,04,26,13,30,333.50
2020,04,26,13,31,295.80
2020,04,26,13,32,290.70
2020,04,26,13,33,306.20
2020,04,26,13,34,279.50
2020,04,26,13,35,251.30
2020,04,26,13,36,257.30
2020,04,26,13,37,268.10
2020,04,26,13,38,292.80
2020,04,26,13,39,347.10
2020,04,26,13,40,404.90
2020,04,26,13,41,481.40
2020,04,26,13,42,486.70
2020,04,26,13,43,486.20
2020,04,26,13,44,503.10
2020,04,26,13,45,477.90
2020,04,26,13,46,455.70
2020,04,26,13,47,430.50
2020,04,26,13,48,402.00
2020,04,26,13,49,379.70
2020,04,26,13,50,323.40
2020,04,26,13,51,327.20
2020,04,26,13,52,359.20
2020,04,26,13,53,324.50
2020,04,26,13,54,318.30
2020,04,26,13,55,368.10
2020,04,26,13,56,289.20
2020,04,26,13,57,272.40
2020,04,26,13,58,246.50
2020,04,26,13,59,250.00
2020,04,26,14,00,256.50
2020,04,26,14,01,252.00
2020,04,26,14,02,291.00
2020,04,26,14,03,309.80
2020,04,26,14,04,346.30
2020,04,26,14,05,359.50
2020,04,26,14,06,316.20
2020,04,26,14,07,274.20
2020,04,26,14,08,265.00
2020,04,26,14,09,257.60
2020,04,26,14,10,256.10
2020,04,26,14,11,261.40
2020,04,26,14,12,260.90
2020,04,26,14,13,265.80
2020,04,26,14,14,278.70
2020,04,26,14,15,279.80
2020,04,26,14,16,280.60
2020,04,26,14,17,280.20
2020,04,26,14,18,308.50
2020,04,26,14,19,309.10
2020,04,26,14,20,297.80
2020,04,26,14,21,295.00
2020,04,26,14,22,279.80
2020,04,26,14,23,282.90
2020,04,26,14,24,245.10
2020,04,26,14,25,224.10
2020,04,26,14,26,213.00
2020,04,26,14,27,230.80
2020,04,26,14,28,277.80
2020,04,26,14,29,312.80
2020,04,26,14,30,338.20
2020,04,26,14,31,355.90
2020,04,26,14,32,355.30
2020,04,26,14,33,388.70
2020,04,26,14,34,376.60
2020,04,26,14,35,349.60
2020,04,26,14,36,365.80
2020,04,26,14,37,360.80
2020,04,26,14,38,358.60
2020,04,26,14,39,352.00
2020,04,26,14,40,349.60
2020,04,26,14,41,369.40
2020,04,26,14,42,406.60
2020,04,26,14,43,472.00
2020,04,26,14,44,502.80
2020,04,26,14,45,525.60
2020,04,26,14,46,508.00
2020,04,26,14,47,478.40
2020,04,26,14,48,487.30
2020,04,26,14,49,461.30
2020,04,26,14,50,418.90
2020,04,26,14,51,357.20
2020,04,26,14,52,321.70
2020,04,26,14,53,320.00
2020,04,26,14,54,321.30
2020,04,26,14,55,291.80
2020,04,26,14,56,250.50
2020,04,26,14,57,223.20
2020,04,26,14,58,205.00
2020,04,26,14,59,202.40
2020,04,26,15,00,207.10
2020,04,26,15,01,226.80
2020,04,26,15,02,278.50
2020,04,26,15,03,318.20
2020,04,26,15,04,352.90
2020,04,26,15,05,357.30
2020,04,26,15,06,334.20
2020,04,26,15,07,336.40
2020,04,26,15,08,354.00
2020,04,26,15,09,323.40
2020,04,26,15,10,251.10
2020,04,26,15,11,208.90
2020,04,26,15,12,190.50
2020,04,26,15,13,181.60
2020,04,26,15,14,189.60
2020,04,26,15,15,210.60
2020,04,26,15,16,254.10
2020,04,26,15,17,266.10
2020,04,26,15,18,256.20
2020,04,26,15,19,295.50
2020,04,26,15,20,293.50
2020,04,26,15,21,281.20
2020,04,26,15,22,288.30
2020,04,26,15,23,340.10
2020,04,26,15,24,398.90
2020,04,26,15,25,434.00
2020,04,26,15,26,501.40
2020,04,26,15,27,520.00
2020,04,26,15,28,495.10
2020,04,26,15,29,429.70
2020,04,26,15,30,405.20
2020,04,26,15,31,405.20
2020,04,26,15,32,455.20
2020,04,26,15,33,399.90
2020,04,26,15,34,433.80
2020,04,26,15,35,394.60
2020,04,26,15,36,374.40
2020,04,26,15,37,317.50
2020,04,26,15,38,294.00
2020,04,26,15,39,231.00
2020,04,26,15,40,187.70
2020,04,26,15,41,169.20
2020,04,26,15,42,159.50
2020,04,26,15,43,159.70
2020,04,26,15,44,169.30
2020,04,26,15,45,185.20
2020,04,26,15,46,207.00
2020,04,26,15,47,228.50
2020,04,26,15,48,240.70
2020,04,26,15,49,240.30
2020,04,26,15,50,244.80
2020,04,26,15,51,247.10
2020,04,26,15,52,261.20
2020,04,26,15,53,287.00
2020,04,26,15,54,297.40
2020,04,26,15,55,320.30
2020,04,26,15,56,315.50
2020,04,26,15,57,260.60
2020,04,26,15,58,218.50
2020,04,26,15,59,206.30
2020,04,26,16,00,211.70
2020,04,26,16,01,213.80
2020,04,26,16,02,234.20
2020,04,26,16,03,258.60
2020,04,26,16,04,277.30
2020,04,26,16,05,252.80
2020,04,26,16,06,247.90
2020,04,26,16,07,269.40
2020,04,26,16,08,297.50
2020,04,26,16,09,330.00
2020,04,26,16,10,345.10
2020,04,26,16,11,326.50
2020,04,26,16,12,313.00
2020,04,26,16,13,300.60
2020,04,26,16,14,351.20
2020,04,26,16,15,452.20
2020,04,26,16,16,467.80
2020,04,26,16,17,452.70
2020,04,26,16,18,401.00
2020,04,26,16,19,359.50
2020,04,26,16,20,333.70
2020,04,26,16,21,327.60
2020,04,26,16,22,344.60
2020,04,26,16,23,366.00
2020,04,26,16,24,366.00
2020,04,26,16,25,296.90
2020,04,26,16,26,206.30
2020,04,26,16,27,210.20
2020,04,26,16,28,215.40
2020,04,26,16,29,198.70
2020,04,26,16,30,205.80
2020,04,26,16,31,215.40
2020,04,26,16,32,211.00
2020,04,26,16,33,204.20
2020,04,26,16,34,203.30
2020,04,26,16,35,204.00
2020,04,26,16,36,200.60
2020,04,26,16,37,204.10
2020,04,26,16,38,182.80
2020,04,26,16,39,162.20
2020,04,26,16,40,144.10
2020,04,26,16,41,149.90
2020,04,26,16,42,176.00
2020,04,26,16,43,181.90
2020,04,26,16,44,155.70
2020,04,26,16,45,144.00
2020,04,26,16,46,139.80
2020,04,26,16,47,138.80
2020,04,26,16,48,169.60
2020,04,26,16,49,171.20
2020,04,26,16,50,160.50
2020,04,26,16,51,160.00
2020,04,26,16,52,160.50
2020,04,26,16,53,172.20
2020,04,26,16,54,195.70
2020,04,26,16,55,202.60
2020,04,26,16,56,210.90
2020,04,26,16,57,224.90
2020,04,26,16,58,236.00
2020,04,26,16,59,234.20
2020,04,26,17,00,226.20
2020,04,26,17,01,216.50
2020,04,26,17,02,208.40
2020,04,26,17,03,202.80
2020,04,26,17,04,202.40
2020,04,26,17,05,212.10
2020,04,26,17,06,218.60
2020,04,26,17,07,219.20
2020,04,26,17,08,210.20
2020,04,26,17,09,196.20
2020,04,26,17,10,179.10
2020,04,26,17,11,163.80
2020,04,26,17,12,156.00
2020,04,26,17,13,158.80
2020,04,26,17,14,169.70